Current Version              Previous Version:    01  02  03  04  05  06  07  08  09  10  11  12  13  14  15  16  17  18  19  20  21  22  23  24  25  26  27  28  29  30  
   31  32  33  34  35  36  37  38  39  40  41  42  43  44  45  46  47  48  49  50  51  52  53  54  55  56  57  58  59  60  

[Printable]
870
ASUS44 KLUB 301801
RWRTX
WEST TEXAS WEATHER ROUNDUP
NATIONAL WEATHER SERVICE LUBBOCK TX
1200 PM CST FRI JAN 30 2015

NOTE: "FAIR" INDICATES FEW OR NO CLOUDS BELOW 12,000 FEET WITH NO
SIGNIFICANT WEATHER AND/OR OBSTRUCTIONS TO VISIBILITY.

TXZ004-006>008-010-012-014-016-OKZ002-301900-
TEXAS PANHANDLE/OKLAHOMA PANHANDLE

CITY           SKY/WX    TMP DP  RH WIND       PRES   REMARKS
AMARILLO       CLOUDY    38  27  64 S13       30.40F WCI  30
BORGER         CLOUDY    42  26  53 S13       30.41F
CANADIAN       CLOUDY    45  29  53 S9        30.43F
DALHART        CLOUDY    41  28  60 S14       30.37F
GUYMON         CLOUDY    43  28  55 S14       30.37F
$$

TXZ026-029-035-045-048-301900-
SOUTHERN PANHANDLE/SOUTH PLAINS/ROLLING PLAINS

CITY           SKY/WX    TMP DP  RH WIND       PRES   REMARKS
CHILDRESS      CLOUDY    42  29  59 SE8       30.48F
LUBBOCK        CLOUDY    41  27  57 SE14      30.40F
$$

TXZ052-054-060>062-072-078-127-140-154-169-301900-
PERMIAN BASIN/CONCHO VALLEY/BIG COUNTRY/EDWARDS PLATEAU

CITY           SKY/WX    TMP DP  RH WIND       PRES   REMARKS
ABILENE        CLOUDY    45  29  53 E7        30.44F
BROWNWOOD      CLOUDY    46  32  57 E8        30.44F
JUNCTION       MOSUNNY   51  32  48 E10       30.39F
MIDLAND        CLOUDY    45  30  55 E16       30.36F
ODESSA         CLOUDY    45  30  55 E13       30.37F
SAN ANGELO     CLOUDY    49  33  54 E13       30.41F
WINK           CLOUDY    45  27  49 E8        30.35F
$$

TXZ055-058-074-075-080-082-301900-
FAR WEST/SOUTHWEST MOUNTAINS/TRANS PECOS

CITY           SKY/WX    TMP DP  RH WIND       PRES   REMARKS
DRYDEN           N/A     52  33  48 E12       30.33F
EL PASO        CLOUDY    45  36  70 E14       30.22F
FORT STOCKTON  CLOUDY    47  33  58 E10       30.33F
GUADALUPE PASS CLOUDY    31  30  96 NE39G48   30.23S FOG     WCI  14
MARFA          CLOUDY    45  34  65 NE13      30.30S
$$

TXZ014-016-019-021>030-083-301900
TEXAS TECH WEST TEXAS MESONET/TEXAS PANHANDLE/NORTHERN SOUTH PLAINS

CITY           SKY/WX    TMP DP  RH WIND       PRES   REMARKS
ABERNATHY 5ENE   N/A     39  28  62 E9        30.42F WCI  33
AMARILLO 9NNE    N/A     39  27  62 S12       30.41S WCI  32
AMARILLO 7SSE    N/A     38  28  66 SE9       30.40F WCI  31
AMHERST 1NE      N/A     38  27  63 SE10      30.41F WCI  31
BOOTLEG 11WNW    N/A     37  26  66 S12       30.40F WCI  29
CANADIAN 6E      N/A     42  26  51 SE13      30.43F
CAPROCK CYN SP   N/A     40  28  60 SE7       30.46F
CLARENDON 2WSW   N/A     39  27  60 S9        30.44F WCI  33
CLAUDE 12SW      N/A     37  27  66 S9        30.41F WCI  31
DIMMITT 2NE      N/A     37  27  67 SE12      30.41F WCI  29
FLOYDADA 2NNE    N/A     39  26  59 E10       30.43S WCI  32
FRIONA 2NE       N/A     38  27  66 SE12      30.41F WCI  30
GOODLETT 3W      N/A     43  28  54 SE7       30.48F
HART 3N          N/A     37  27  68 SE12      30.41F WCI  29
HEREFORD 2NW     N/A     38  26  61 S10       30.41S WCI  31
MCLEAN 1E        N/A     39  26  61 SE8       30.42F WCI  33
MEMPHIS 1NE      N/A     42  28  57 SE7       30.47F
MULESHOE 2SSW    N/A     39  27  62 SE9       30.40F WCI  33
OLTON 6S         N/A     38  27  63 E9        30.41F WCI  32
PALO DURO SP     N/A     38  27  64 SE6       30.42F WCI  33
PAMPA 2E         N/A     38  26  62 S10       30.41F WCI  31
PLAINVIEW 1S     N/A     38  27  63 E8        30.42S WCI  33
SILVERTON 7ESE   N/A     38  26  62 SE9       30.44F WCI  32
TULIA 2ENE       N/A     37  28  72 SE12      30.42F WCI  29
TURKEY 2WSW      N/A     41  28  60 SE8       30.46F
UMBARGER 3NNE    N/A     37  26  64 S14       30.41F WCI  29
$$

TXZ033>036-039>041-045>048-301900
TEXAS TECH WEST TEXAS MESONET/SOUTH PLAINS

CITY           SKY/WX    TMP DP  RH WIND       PRES   REMARKS
AIKEN 3WSW       N/A     39  27  62 SE10      30.44S WCI  32
ANDREWS 2NE      N/A     42  29  61 E13       30.38F
ANTON 6SSW       N/A     40  28  62 E10       30.41F WCI  33
BROWNFIELD 2S    N/A     39  27  60 E13       30.40F WCI  32
DENVR CTY 7WNW   N/A     39  26  59 E10       30.38F WCI  32
GAIL 2ESE        N/A     43  29  56 E10       30.42F
LAMESA 2SE       N/A     42  29  61 E10       30.41F
LEVELLAND 4S     N/A     40  25  56 E12       30.40F WCI  32
LUBBOCK 3WNW     N/A     40  26  57 E10       30.42F WCI  34
MORTON 1ENE      N/A     38  28  67 E7        30.40F WCI  33
ODONNELL 1N      N/A     41  28  59 E9        30.41F
PLAINS 3N        N/A     39  27  62 E9        30.38F WCI  33
RALLS 1SE        N/A     39  27  60 E10       30.43F WCI  33
REESE CENTER     N/A     40  26  57 E10       30.41F WCI  33
SEAGRAVES 1SW    N/A     40  27  60 E8        30.39F WCI  34
SEMINOLE 2NNE    N/A     41  27  58 E13       30.39F
SLATON 2NE       N/A     40  28  62 E12       30.42F WCI  32
SNYDER 3E        N/A     44  30  58 E9        30.43F
SUNDOWN 8SW      N/A     39  26  58 E10       30.39F WCI  32
TAHOKA 3NNE      N/A     41  28  58 E9        30.41F
WOLFFORTH 6SSW   N/A     41  28  58 E10       30.41F
$$

TXZ031-032-036>038-042>044-301900-
TEXAS TECH WEST TEXAS MESONET/ROLLING PLAINS

CITY           SKY/WX    TMP DP  RH WIND       PRES   REMARKS
ASPERMONT 3NE    N/A     45  30  56 NE8       30.47F
FLUVANNA 3WNW    N/A     42  29  60 E9        30.42F
GRAHAM 5SSW      N/A     41  28  60 E12       30.41F
GUTHRIE 10WSW    N/A     42  29  60 E6        30.46F
HASKELL 1NW      N/A     43  29  57 E8        30.47F
JAYTON 1SSE      N/A     42  30  60 E8        30.46F
KNOX CITY 3NW    N/A     44  29  57 NE6       30.49F
LK A HENRY 1NW   N/A     44  29  56 E9        30.44F
NORTHFIELD 1S    N/A     43  29  58 SE7       30.48S
ODELL 4ENE       N/A     44  29  54 E7        30.50F
PADUCAH 10SW     N/A     41  29  63 E7        30.47F
POST 1NE         N/A     42  28  56 E10       30.43F
RRING SPRGS 3N   N/A     40  29  64 SE7       30.45F WCI  35
SEYMOUR 3NW      N/A     44  28  54 E6        30.49F
SPUR 1W          N/A     41  28  59 E7        30.44F
WEINERT 2NNE     N/A     44  29  56 E7        30.48F
WHITE RVR 6NE    N/A     41  27  59 E9        30.43F
$$

TXZ052-054-060>062-072-078-127-140-154-169-301900-
TEXAS TECH WEST TEXAS MESONET/PERMIAN BASIN/
CONCHO VALLEY/BIG COUNTRY/EDWARDS PLATEAU

CITY           SKY/WX    TMP DP  RH WIND       PRES   REMARKS
COYANOSA 2N      N/A     48  32  52 E12       30.36F
JUNCTION 1SSW    N/A     52  34  50 NE8       30.40F
MERTZON 3NNE     N/A     46  32  57 NE10      30.42F
SAN ANGELO 7NW   N/A     47  30  53 E12       30.42F
STRLNG CT 4WSW   N/A     43  29  58 NE8       30.42F
ST LAWRNCE 5SW   N/A     43  31  62 E12       30.40F
SWEETWATR 11SW   N/A     44  31  59 E10       30.44S
WALL 1E          N/A     47  33  57 E12       30.42F
$$

TXZ055-058-074-075-080-082-301900-
TEXAS TECH WEST TEXAS MESONET/FAR WEST/SOUTHWEST MOUNTAINS/TRANS PECOS

CITY           SKY/WX    TMP DP  RH WIND       PRES   REMARKS
PRSMN GAP BBNP   N/A     50  33  52 NE22      30.29F
$$